Franklin, PA

12:36 AM EDT on October 22, 2019 (GMT -0400)
Venango Regional

Weather History for KFKL - September, 2019

Change the Weather History Date:

Sunday, September 22, 2019

  Actual Average Record
Temperature  
Mean Temperature 72 °F -  
Max Temperature 82 °F 70 °F 92 °F (1931)
Min Temperature 62 °F 49 °F 31 °F (1929)
Cooling Degree Days 7    
Growing Degree Days 22 (Base 50)    
Moisture  
Dew Point 63 °F    
Average Humidity 81    
Maximum Humidity 100    
Minimum Humidity 49    
Precipitation  
Precipitation 0.00 in - - ()
Sea Level Pressure  
Sea Level Pressure 30.11 in    
Wind  
Wind Speed 7 mph (SSW)    
Max Wind Speed 14 mph    
Max Gust Speed 23 mph    
Visibility 8 miles    
Events      
Averages and records for this station are not official NWS values.
T = Trace of Precipitation, MM = Missing Value Source: NWS Daily Summary

Daily Weather History Graph

Daily Weather History Graph

Search for Another Location

Airport or City:

Astronomy

Sep. 22, 2019 Rise Set
Actual Time 7:06 AM EDT 7:17 PM EDT
Civil Twilight 6:39 AM EDT 7:44 PM EDT
Nautical Twilight 6:06 AM EDT 8:16 PM EDT
Astronomical Twilight 5:33 AM EDT 8:49 PM EDT
Moon No Moon Rise 3:15 PM EDT
Length of Visible Light 13h 05m
Length of Day
12h 10m
Last Quarter, 44% of the Moon is Illuminated
Sep 22
Last Quarter
Sep 28
New
Oct 5
First Quarter
Oct 13
Full
Oct 21
Last Quarter

Hourly Weather History & Observations

Time (EDT) Temp. Heat Index Dew Point Humidity Pressure Visibility Wind Dir Wind Speed Gust Speed Precip Events Conditions
12:56 AM 68.0 °F - 64.0 °F 87% 30.18 in 10.0 mi WSW 5.8 mph - N/A   Clear
1:56 AM 66.0 °F - 64.0 °F 93% 30.17 in 10.0 mi SSW 5.8 mph - N/A   Clear
2:56 AM 66.0 °F - 64.0 °F 93% 30.16 in 10.0 mi SSW 4.6 mph - N/A   Clear
3:56 AM 64.9 °F - 64.0 °F 97% 30.15 in 6.0 mi SW 4.6 mph - N/A   Clear
4:56 AM 63.0 °F - 62.1 °F 97% 30.16 in 4.0 mi SW 5.8 mph - N/A   Clear
5:56 AM 64.0 °F - 63.0 °F 96% 30.16 in 4.0 mi SSW 4.6 mph - N/A   Clear
6:45 AM 62.6 °F - 62.6 °F 100% 30.19 in 2.5 mi SSW 5.8 mph - N/A   Clear
6:56 AM 62.1 °F - 62.1 °F 100% 30.17 in 1.8 mi SSW 5.8 mph - N/A   Clear
7:22 AM 62.6 °F - 62.6 °F 100% 30.19 in 3.0 mi SSW 6.9 mph - N/A   Clear
7:32 AM 62.6 °F - 62.6 °F 100% 30.19 in 2.0 mi SSW 5.8 mph - N/A   Clear
7:39 AM 62.6 °F - 62.6 °F 100% 30.19 in 1.8 mi SSW 6.9 mph - N/A   Clear
7:46 AM 64.4 °F - 62.6 °F 94% 30.18 in 2.5 mi South 6.9 mph - N/A   Clear
7:56 AM 64.9 °F - 64.9 °F 100% 30.17 in 5.0 mi South 6.9 mph - N/A   Clear
8:56 AM 68.0 °F - 66.0 °F 93% 30.18 in 8.0 mi SSW 5.8 mph - N/A   Scattered Clouds
9:56 AM 73.0 °F - 66.9 °F 81% 30.16 in 10.0 mi SW 8.1 mph - N/A   Clear
10:56 AM 77.0 °F - 66.9 °F 71% 30.14 in 10.0 mi SW 10.4 mph - N/A   Clear
11:56 AM 80.1 °F 82.1 °F 66.0 °F 62% 30.13 in 10.0 mi SW 11.5 mph - N/A   Clear
12:56 PM 81.0 °F 82.7 °F 64.9 °F 58% 30.10 in 10.0 mi SW 12.7 mph 21.9 mph N/A   Clear
1:56 PM 82.0 °F 83.4 °F 64.0 °F 54% 30.08 in 10.0 mi SW 13.8 mph 23.0 mph N/A   Mostly Cloudy
2:56 PM 82.0 °F 83.4 °F 64.0 °F 54% 30.05 in 10.0 mi SSW 11.5 mph 17.3 mph N/A   Partly Cloudy
3:56 PM 82.9 °F 83.7 °F 62.1 °F 49% 30.03 in 10.0 mi SW 11.5 mph 18.4 mph N/A   Partly Cloudy
4:56 PM 82.0 °F 83.0 °F 62.1 °F 51% 30.01 in 10.0 mi SSW 12.7 mph - N/A   Scattered Clouds
6:56 PM 75.9 °F - 64.0 °F 67% 30.01 in 10.0 mi South 6.9 mph - N/A   Clear
7:56 PM 73.9 °F - 63.0 °F 68% 30.00 in 10.0 mi South 6.9 mph - N/A   Clear
8:56 PM 70.0 °F - 62.1 °F 76% 30.00 in 10.0 mi SSW 6.9 mph - N/A   Clear
9:56 PM 70.0 °F - 62.1 °F 76% 29.99 in 10.0 mi SSW 6.9 mph - N/A   Clear
10:56 PM 69.1 °F - 61.0 °F 75% 29.98 in 10.0 mi SSW 4.6 mph - N/A   Clear
11:56 PM 68.0 °F - 60.1 °F 76% 29.97 in 10.0 mi SSW 6.9 mph - N/A   Clear